Tracking 19717 objects as of 24-Jun-2019
HD Live streaming from Space Station
objects crossing your sky now

THORAD AGENA D DEB

Track THORAD AGENA D DEB now!
10-day predictions


NORAD ID: 5024
Int'l Code: 1970-025HY
Perigee: 775.7 km
Apogee: 910.1 km
Inclination: 99.9 °
Period: 101.6 minutes
Semi major axis: 7213 km
RCS: 0.0419 m2 (small)
Launch date: April 8, 1970
Source: United States (US)
Launch site: AIR FORCE WESTERN TEST RANGE (AFWTR)

Note: This is SATELLITE DEBRIS
aabbcc
Your satellite tracking list
Your tracking list is empty




NASA's NSSDC Master Catalog

Two Line Element Set (TLE):
1  5024U 70025HY  19174.91720530 +.00000200 +00000-0 +12083-3 0  9993
2  5024 099.8555 187.2580 0093182 019.1801 341.2840 14.16925817510134
Source of the keplerian elements: AFSPC